WXForecasting.com
Harvey, MI - Weather Station Data
 
Daily Summary for January 29, 2015 Units:  English    Metric   Both
« Previous Day
Next Day »
Daily Weekly Monthly Yearly Custom
  Current: High: Low: Average:
Temperature: 17.5 °F 32.4 °F 17.5 °F 26.6 °F
Dew Point: 12.0 °F 27.0 °F 12.0 °F 21.5 °F
Humidity: 79% 87% 71% 81%
Wind Speed: 3.0mph 12.0mph 0.0mph 2.6mph
Wind Gust: 9.0mph 15.0mph - -
WindNNW - - West
Pressure: 30.27 in 30.27 in 29.74 in -
Precipitation: 0.00 in      
Historical Graphs
 
 
Tabular Data for January 29, 2015
Time Temp Dew Point Pressure Wind Wind Speed Wind Gust RH Rain Rate/Hour
00:06 31.7 °F 24.0 °F 29.86 in SSE 3.0 mph 10.0 mph 74% 0.00 in
00:21 31.7 °F 24.0 °F 29.84 in South 3.0 mph 7.0 mph 73% 0.00 in
00:37 31.5 °F 24.0 °F 29.84 in South 4.0 mph 9.0 mph 73% 0.00 in
00:52 31.3 °F 23.0 °F 29.83 in South 2.0 mph 5.0 mph 72% 0.00 in
01:07 31.2 °F 23.0 °F 29.83 in SSE 3.0 mph 8.0 mph 71% 0.00 in
01:22 31.1 °F 23.0 °F 29.82 in SSW 3.0 mph 7.0 mph 71% 0.00 in
01:37 31.0 °F 23.0 °F 29.81 in South 2.0 mph 7.0 mph 71% 0.00 in
01:52 30.8 °F 22.0 °F 29.80 in South 3.0 mph 5.0 mph 71% 0.00 in
02:07 30.7 °F 23.0 °F 29.80 in South 3.0 mph 7.0 mph 72% 0.00 in
02:22 30.3 °F 23.0 °F 29.79 in SSW 1.0 mph 6.0 mph 75% 0.00 in
02:37 30.1 °F 23.0 °F 29.79 in Calm   6.0 mph 76% 0.00 in
02:52 30.0 °F 23.0 °F 29.79 in South 2.0 mph 5.0 mph 76% 0.00 in
03:07 29.7 °F 24.0 °F 29.78 in SW 1.0 mph 7.0 mph 79% 0.00 in
03:22 29.2 °F 24.0 °F 29.78 in SSW 3.0 mph 5.0 mph 82% 0.00 in
03:37 29.0 °F 25.0 °F 29.77 in South 1.0 mph 7.0 mph 84% 0.00 in
03:52 28.7 °F 25.0 °F 29.77 in Calm   3.0 mph 85% 0.00 in
04:07 28.7 °F 25.0 °F 29.76 in South 2.0 mph 3.0 mph 86% 0.00 in
04:22 28.6 °F 25.0 °F 29.76 in South 2.0 mph 2.0 mph 86% 0.00 in
04:37 28.6 °F 25.0 °F 29.76 in Calm   3.0 mph 87% 0.00 in
04:52 28.5 °F 25.0 °F 29.75 in Calm   2.0 mph 87% 0.00 in
05:07 28.5 °F 25.0 °F 29.75 in Calm   2.0 mph 87% 0.00 in
05:22 28.5 °F 25.0 °F 29.75 in South 2.0 mph 3.0 mph 87% 0.00 in
05:37 28.5 °F 25.0 °F 29.75 in Calm   1.0 mph 86% 0.00 in
05:52 28.5 °F 25.0 °F 29.74 in Calm   2.0 mph 87% 0.00 in
06:07 28.5 °F 25.0 °F 29.74 in Calm   3.0 mph 86% 0.00 in
06:22 28.6 °F 25.0 °F 29.74 in Calm     86% 0.00 in
06:37 28.7 °F 25.0 °F 29.74 in Calm   2.0 mph 86% 0.00 in
06:52 28.7 °F 25.0 °F 29.75 in Calm     86% 0.00 in
07:07 28.6 °F 25.0 °F 29.75 in South 1.0 mph 1.0 mph 86% 0.00 in
07:22 29.1 °F 26.0 °F 29.75 in Calm   2.0 mph 87% 0.00 in
07:37 30.0 °F 26.0 °F 29.76 in South 1.0 mph 3.0 mph 86% 0.00 in
07:52 30.4 °F 26.0 °F 29.76 in South 1.0 mph 2.0 mph 85% 0.00 in
08:07 30.6 °F 27.0 °F 29.77 in NW 2.0 mph 3.0 mph 86% 0.00 in
08:22 30.9 °F 27.0 °F 29.77 in NW 1.0 mph 3.0 mph 85% 0.00 in
08:37 31.3 °F 27.0 °F 29.78 in NW 1.0 mph 6.0 mph 85% 0.00 in
08:52 31.5 °F 27.0 °F 29.79 in WNW 2.0 mph 4.0 mph 84% 0.00 in
09:07 31.7 °F 27.0 °F 29.80 in WNW 2.0 mph 5.0 mph 83% 0.00 in
09:22 31.8 °F 27.0 °F 29.81 in WNW 1.0 mph 6.0 mph 82% 0.00 in
09:37 31.9 °F 27.0 °F 29.81 in NW 2.0 mph 5.0 mph 82% 0.00 in
09:52 32.0 °F 27.0 °F 29.82 in NW 3.0 mph 9.0 mph 81% 0.00 in
10:07 32.0 °F 27.0 °F 29.82 in NW 3.0 mph 8.0 mph 81% 0.00 in
10:23 32.1 °F 26.0 °F 29.82 in NW 3.0 mph 6.0 mph 79% 0.00 in
10:38 32.2 °F 26.0 °F 29.83 in NW 3.0 mph 9.0 mph 78% 0.00 in
10:53 32.3 °F 26.0 °F 29.84 in NW 3.0 mph 8.0 mph 78% 0.00 in
11:08 32.4 °F 26.0 °F 29.84 in NW 3.0 mph 6.0 mph 77% 0.00 in
11:23 31.6 °F 26.0 °F 29.86 in WNW 12.0 mph 12.0 mph 81% 0.00 in
11:38 30.5 °F 25.0 °F 29.87 in Calm   8.0 mph 81% 0.00 in
11:53 29.9 °F 25.0 °F 29.87 in NE 2.0 mph 10.0 mph 82% 0.00 in
12:08 29.1 °F 24.0 °F 29.88 in NNW 2.0 mph 11.0 mph 82% 0.00 in
12:23 28.5 °F 24.0 °F 29.89 in NW 6.0 mph 9.0 mph 83% 0.00 in
12:38 28.1 °F 24.0 °F 29.89 in NNW 4.0 mph 12.0 mph 84% 0.00 in
12:53 27.7 °F 24.0 °F 29.90 in Calm   10.0 mph 85% 0.00 in
13:08 27.4 °F 24.0 °F 29.90 in NW 1.0 mph 11.0 mph 85% 0.00 in
13:23 26.9 °F 23.0 °F 29.91 in WNW 5.0 mph 11.0 mph 85% 0.00 in
13:38 26.0 °F 22.0 °F 29.91 in ENE 4.0 mph 12.0 mph 85% 0.00 in
13:53 25.3 °F 21.0 °F 29.91 in WNW 4.0 mph 10.0 mph 84% 0.00 in
14:08 24.9 °F 21.0 °F 29.93 in WNW 2.0 mph 11.0 mph 84% 0.00 in
14:23 24.4 °F 20.0 °F 29.94 in NW 4.0 mph 10.0 mph 83% 0.00 in
14:38 23.7 °F 19.0 °F 29.96 in NNW 4.0 mph 12.0 mph 83% 0.00 in
14:53 23.3 °F 19.0 °F 29.96 in NNW 4.0 mph 13.0 mph 83% 0.00 in
15:08 23.1 °F 19.0 °F 29.97 in NNW 5.0 mph 12.0 mph 83% 0.00 in
15:23 23.1 °F 19.0 °F 29.98 in NNW 1.0 mph 12.0 mph 83% 0.00 in
15:39 22.9 °F 18.0 °F 30.00 in NW 10.0 mph 15.0 mph 82% 0.00 in
15:53 22.2 °F 17.0 °F 30.01 in NW 3.0 mph 12.0 mph 81% 0.00 in
16:09 21.7 °F 16.0 °F 30.02 in NW 5.0 mph 12.0 mph 80% 0.00 in
16:24 20.8 °F 15.0 °F 30.04 in WNW 3.0 mph 12.0 mph 78% 0.00 in
16:39 20.5 °F 15.0 °F 30.05 in WNW 7.0 mph 11.0 mph 78% 0.00 in
16:54 20.3 °F 15.0 °F 30.06 in WNW 7.0 mph 8.0 mph 79% 0.00 in
17:09 20.1 °F 15.0 °F 30.07 in NW 5.0 mph 12.0 mph 80% 0.00 in
17:24 19.9 °F 14.0 °F 30.09 in NW 4.0 mph 11.0 mph 79% 0.00 in
17:39 19.7 °F 14.0 °F 30.10 in NW 1.0 mph 10.0 mph 79% 0.00 in
17:54 19.9 °F 14.0 °F 30.12 in NW 3.0 mph 9.0 mph 79% 0.00 in
18:09 19.8 °F 14.0 °F 30.13 in NW 2.0 mph 6.0 mph 79% 0.00 in
18:24 19.6 °F 14.0 °F 30.14 in NW 9.0 mph 9.0 mph 78% 0.00 in
18:39 19.7 °F 14.0 °F 30.15 in NW 3.0 mph 11.0 mph 77% 0.00 in
18:54 19.4 °F 14.0 °F 30.17 in WNW 7.0 mph 10.0 mph 79% 0.00 in
19:09 19.0 °F 13.0 °F 30.18 in NW 1.0 mph 10.0 mph 77% 0.00 in
19:24 19.0 °F 13.0 °F 30.19 in NW 3.0 mph 10.0 mph 77% 0.00 in
19:39 18.9 °F 13.0 °F 30.21 in NW 1.0 mph 9.0 mph 77% 0.00 in
19:54 18.8 °F 13.0 °F 30.21 in NNW 2.0 mph 10.0 mph 77% 0.00 in
20:09 19.0 °F 13.0 °F 30.23 in NW 6.0 mph 8.0 mph 78% 0.00 in
20:25 18.4 °F 14.0 °F 30.24 in NNE 1.0 mph 10.0 mph 82% 0.00 in
20:39 17.9 °F 14.0 °F 30.25 in North 3.0 mph 9.0 mph 84% 0.00 in
20:54 17.7 °F 14.0 °F 30.26 in NNW 2.0 mph 7.0 mph 84% 0.00 in
21:09 17.7 °F 13.0 °F 30.26 in NW 2.0 mph 9.0 mph 81% 0.00 in
21:25 17.5 °F 12.0 °F 30.27 in NNW 3.0 mph 9.0 mph 79% 0.00 in
Compliments of Weather Underground

3 Visitors online right now
Max visitors today: 18 at 10:58 am EST
This month: 30 at 01-03-2015 05:32 am EST
This year: 30 at 01-03-2015 05:32 am EST
All time: 104 at 01-04-2012 03:34 am EST
See Who is Online